Weather History for Fairbanks Ft. Wainwright, AK

Change the Weather History Date:

Saturday, November 3, 2012

  Actual Average Record
Temperature  
Mean Temperature 9 °F -  
Max Temperature 17 °F 18 °F 37 °F (2003)
Min Temperature 1 °F 6 °F -14 °F (2005)
Degree Days  
Heating Degree Days 56    
Moisture  
Dew Point 6 °F    
Average Humidity 70    
Maximum Humidity 84    
Minimum Humidity 54    
Precipitation  
Precipitation 0.00 in - - ()
Sea Level Pressure  
Sea Level Pressure 29.69 in    
Wind  
Wind Speed 8 mph (ENE)    
Max Wind Speed 10 mph    
Max Gust Speed -    
Visibility 7 miles    
Events Snow    
Averages and records for this station are not official NWS values.
T = Trace of Precipitation, MM = Missing Value Source: NWS Daily Summary

Daily Weather History Graph

Daily Weather History Graph

Search for Another Location

Airport:

Trip Planner

Search our weather history database for the weather conditions in past years. The results will help you decide how hot, cold, wet, or windy it might be!

Date:

Astronomy

Nov. 03, 2012 Rise Set
Actual Time 9:47 AM AKDT 5:19 PM AKDT
Civil Twilight 8:50 AM AKDT 6:16 PM AKDT
Nautical Twilight 7:51 AM AKDT 7:15 PM AKDT
Astronomical Twilight 6:54 AM AKDT 8:11 PM AKDT
Moon 8:26 PM AKDT (11/3) 2:45 PM AKDT (11/3)
Length of Visible Light 9h 25m
Length of Day
7h 32m
Waning Gibbous, 79% of the Moon is Illuminated
Nov 3
Waning Gibbous
Nov 6
Last Quarter
Nov 13
New
Nov 20
First Quarter
Nov 28
Full

Hourly Weather History & Observations

Time (AKDT) Temp. Windchill Dew Point Humidity Pressure Visibility Wind Dir Wind Speed Gust Speed Precip Events Conditions
12:56 AM 17.1 °F 5.8 °F 8.1 °F 68% 29.67 in 4.0 mi ENE 9.2 mph - 0.00 in Snow Light Snow
1:18 AM 17.6 °F 6.4 °F 8.6 °F 68% 29.63 in - ENE 9.2 mph - 0.00 in Snow Light Snow
1:25 AM 15.8 °F 3.4 °F 8.6 °F 73% 29.63 in 1.8 mi NE 10.4 mph - 0.00 in Snow Light Snow
1:44 AM 15.8 °F 3.4 °F 8.6 °F 73% 29.64 in 2.5 mi ENE 10.4 mph - 0.00 in Snow Light Snow
1:54 AM 15.8 °F 5.1 °F 8.6 °F 73% 29.64 in - ENE 8.1 mph - 0.00 in Snow Light Snow
1:56 AM 16.0 °F 5.3 °F 9.0 °F 74% 29.68 in 2.5 mi ENE 8.1 mph - 0.00 in Snow Light Snow
2:16 AM 15.8 °F 6.1 °F 8.6 °F 73% 29.64 in - ENE 6.9 mph - 0.00 in Snow Light Snow
2:54 AM 15.8 °F 4.2 °F 8.6 °F 73% 29.64 in 5.0 mi NE 9.2 mph - 0.00 in Snow Light Snow
2:56 AM 15.1 °F 4.2 °F 8.1 °F 74% 29.68 in 5.0 mi ENE 8.1 mph - 0.00 in Snow Light Snow
3:07 AM 15.8 °F 5.1 °F 8.6 °F 73% 29.64 in 4.0 mi NE 8.1 mph - 0.00 in Snow Light Snow
3:20 AM 15.8 °F 7.2 °F 8.6 °F 73% 29.64 in - ENE 5.8 mph - 0.00 in Snow Light Snow
3:31 AM 15.8 °F 7.2 °F 8.6 °F 73% 29.65 in 1.8 mi ENE 5.8 mph - 0.00 in Snow Light Snow
3:54 AM 15.8 °F 4.2 °F 8.6 °F 73% 29.65 in - ENE 9.2 mph - 0.00 in Snow Light Snow
3:56 AM 15.1 °F 4.2 °F 9.0 °F 77% 29.68 in 2.0 mi NE 8.1 mph - 0.00 in Snow Light Snow
4:56 AM 14.0 °F 2.9 °F 7.0 °F 74% 29.69 in 2.5 mi ENE 8.1 mph - 0.00 in Snow Light Snow
5:54 AM 14.0 °F 3.9 °F 8.6 °F 79% 29.66 in - ENE 6.9 mph - 0.00 in Snow Light Snow
5:56 AM 14.0 °F 3.9 °F 7.0 °F 74% 29.70 in 3.0 mi NE 6.9 mph - 0.00 in Snow Light Snow
6:56 AM 14.0 °F - 7.0 °F 74% 29.70 in 10.0 mi Calm Calm - 0.00 in   Overcast
7:56 AM 15.1 °F 7.7 °F 5.0 °F 64% 29.70 in 10.0 mi ENE 4.6 mph - 0.00 in   Overcast
8:56 AM 15.1 °F 5.2 °F 5.0 °F 64% 29.70 in 10.0 mi NE 6.9 mph - 0.00 in   Overcast
9:56 AM 14.0 °F 6.5 °F 5.0 °F 67% 29.72 in 10.0 mi ENE 4.6 mph - N/A   Overcast
10:56 AM 15.1 °F 5.2 °F 6.1 °F 68% 29.73 in 9.0 mi ENE 6.9 mph - 0.00 in Snow Light Snow
11:56 AM 15.1 °F 4.2 °F 7.0 °F 70% 29.73 in 6.0 mi ENE 8.1 mph - 0.00 in Snow Light Snow
12:56 PM 16.0 °F 3.6 °F 6.1 °F 65% 29.73 in 10.0 mi ENE 10.4 mph - 0.00 in   Overcast
1:56 PM 16.0 °F 5.3 °F 8.1 °F 71% 29.73 in 8.0 mi NE 8.1 mph - 0.00 in Snow Light Snow
2:56 PM 17.1 °F 7.6 °F 6.1 °F 62% 29.73 in 10.0 mi ENE 6.9 mph - 0.00 in   Overcast
3:56 PM 17.1 °F 6.6 °F 7.0 °F 65% 29.73 in 4.0 mi ENE 8.1 mph - 0.00 in Snow Light Snow
4:56 PM 17.1 °F 6.6 °F 5.0 °F 59% 29.73 in 10.0 mi ENE 8.1 mph - 0.00 in   Overcast
5:56 PM 17.1 °F 7.6 °F 3.9 °F 56% 29.73 in 10.0 mi ENE 6.9 mph - N/A   Overcast
6:56 PM 17.1 °F 6.6 °F 3.0 °F 54% 29.74 in 10.0 mi ENE 8.1 mph - N/A   Overcast
7:56 PM 17.1 °F 10.0 °F 3.0 °F 54% 29.75 in 10.0 mi NE 4.6 mph - N/A   Overcast
8:56 PM 15.1 °F 9.4 °F 1.9 °F 56% 29.74 in 10.0 mi NE 3.5 mph - N/A   Partly Cloudy
9:56 PM 3.9 °F - -0.0 °F 84% 29.75 in 10.0 mi Calm Calm - N/A   Clear
10:56 PM 1.9 °F - -2.9 °F 80% 29.75 in 10.0 mi Calm Calm - N/A   Mostly Cloudy
11:56 PM 5.0 °F - -0.0 °F 80% 29.75 in 10.0 mi Calm Calm - N/A   Overcast